Hourly Weather Ababuj

Today, 29 November, Sunday

Time Temperature Precipitation Wind Pressure Humidity
00:00 +4°C° 0 mm 1 mps 641 mmHg 90%
01:00 +4°C° 0 mm 1 mps 642 mmHg 90%
02:00 +3°C° 0 mm 0 mps 642 mmHg 90%
03:00 +3°C° 0 mm 0 mps 642 mmHg 91%
04:00 +3°C° 0 mm 0 mps 642 mmHg 91%
05:00 +2°C° 0 mm 0 mps 642 mmHg 91%
06:00 +2°C° 0 mm 0 mps 643 mmHg 92%
07:00 +4°C° 0 mm 1 mps 643 mmHg 88%
08:00 +6°C° 0 mm 1 mps 644 mmHg 83%
09:00 +7°C° 0 mm 1 mps 645 mmHg 79%
10:00 +8°C° 0 mm 1 mps 646 mmHg 74%
11:00 +9°C° 0 mm 1 mps 646 mmHg 69%
12:00 +10°C° 0 mm 1 mps 646 mmHg 64%
13:00 +10°C° 0 mm 1 mps 646 mmHg 65%
14:00 +10°C° 0 mm 1 mps 646 mmHg 66%
15:00 +10°C° 0 mm 1 mps 646 mmHg 67%
16:00 +9°C° 0 mm 1 mps 646 mmHg 74%
17:00 +6°C° 0 mm 0 mps 646 mmHg 81%
18:00 +5°C° 0 mm 0 mps 645 mmHg 88%
19:00 +4°C° 0 mm 0 mps 645 mmHg 89%
20:00 +4°C° 0 mm 0 mps 646 mmHg 89%
21:00 +4°C° 0 mm 0 mps 646 mmHg 90%
22:00 +3°C° 0 mm 0 mps 646 mmHg 90%
23:00 +3°C° 0 mm 0 mps 646 mmHg 90%

Tomorrow, 30 November, Monday

Time Temperature Precipitation Wind Pressure Humidity
00:00 +3°C° 0 mm 0 mps 646 mmHg 89%
01:00 +2°C° 0 mm 0 mps 646 mmHg 89%
02:00 +2°C° 0 mm 0 mps 646 mmHg 89%
03:00 +2°C° 0 mm 0 mps 646 mmHg 89%
04:00 +2°C° 0 mm 0 mps 646 mmHg 89%
05:00 +2°C° 0 mm 0 mps 646 mmHg 89%
06:00 +1°C° 0 mm 0 mps 646 mmHg 88%
07:00 +3°C° 0 mm 0 mps 647 mmHg 83%
08:00 +5°C° 0 mm 0 mps 648 mmHg 77%
09:00 +7°C° 0 mm 0 mps 649 mmHg 71%
10:00 +8°C° 0 mm 0 mps 650 mmHg 67%
11:00 +9°C° 0 mm 0 mps 650 mmHg 63%
12:00 +11°C° 0 mm 1 mps 650 mmHg 59%
13:00 +10°C° 0 mm 1 mps 650 mmHg 60%
14:00 +10°C° 0 mm 1 mps 650 mmHg 61%
15:00 +10°C° 0 mm 1 mps 649 mmHg 62%
16:00 +9°C° 0 mm 1 mps 649 mmHg 70%
17:00 +6°C° 0 mm 0 mps 648 mmHg 78%
18:00 +4°C° 0 mm 0 mps 648 mmHg 86%
19:00 +4°C° 0 mm 0 mps 648 mmHg 87%
20:00 +3°C° 0 mm 0 mps 648 mmHg 87%
21:00 +3°C° 0 mm 0 mps 649 mmHg 88%
22:00 +3°C° 0 mm 0 mps 648 mmHg 88%
23:00 +2°C° 0 mm 0 mps 648 mmHg 88%

Day after tomorrow, 1 December, Tuesday

Time Temperature Precipitation Wind Pressure Humidity
00:00 +2°C° 0 mm 0 mps 648 mmHg 88%
01:00 +2°C° 0 mm 0 mps 648 mmHg 88%
02:00 +1°C° 0 mm 0 mps 648 mmHg 87%
03:00 +1°C° 0 mm 0 mps 647 mmHg 87%
04:00 +2°C° 0 mm 1 mps 647 mmHg 86%
05:00 +2°C° 0 mm 1 mps 647 mmHg 86%
06:00 +2°C° 0 mm 1 mps 647 mmHg 85%
07:00 +3°C° 0 mm 1 mps 647 mmHg 79%
08:00 +5°C° 0 mm 1 mps 648 mmHg 73%
09:00 +6°C° 0 mm 1 mps 648 mmHg 68%
10:00 +6°C° 0 mm 2 mps 648 mmHg 61%
11:00 +7°C° 0 mm 2 mps 648 mmHg 54%
12:00 +8°C° 0 mm 3 mps 648 mmHg 48%
13:00 +6°C° 0 mm 4 mps 648 mmHg 50%
14:00 +6°C° 0 mm 4 mps 647 mmHg 52%
15:00 +5°C° 0 mm 5 mps 646 mmHg 54%
16:00 +3°C° 0 mm 5 mps 646 mmHg 61%
17:00 +3°C° 0 mm 4 mps 646 mmHg 69%
18:00 +1°C° 0 mm 4 mps 645 mmHg 76%
19:00 +1°C° 0 mm 4 mps 645 mmHg 77%
20:00 +1°C° 0 mm 4 mps 645 mmHg 78%
21:00 0°C° 0 mm 4 mps 645 mmHg 79%
22:00 0°C° 0 mm 5 mps 645 mmHg 81%
23:00 0°C° 0 mm 5 mps 644 mmHg 83%

2 December, Wednesday

Time Temperature Precipitation Wind Pressure Humidity
00:00 0°C° 0 mm 5 mps 644 mmHg 85%
01:00 -1°C° 0 mm 6 mps 644 mmHg 85%
02:00 +1°C° 0 mm 6 mps 643 mmHg 86%
03:00 0°C° 0 mm 7 mps 643 mmHg 87%
04:00 0°C° 0 mm 7 mps 642 mmHg 87%
05:00 0°C° 0 mm 8 mps 642 mmHg 87%
06:00 0°C° 0 mm 8 mps 642 mmHg 87%
07:00 -2°C° 0 mm 10 mps 642 mmHg 81%
08:00 -2°C° 0 mm 11 mps 642 mmHg 74%
09:00 -2°C° 0 mm 12 mps 642 mmHg 68%
10:00 -2°C° 0 mm 12 mps 642 mmHg 66%
11:00 -2°C° 0 mm 12 mps 642 mmHg 64%
12:00 -2°C° 0 mm 11 mps 642 mmHg 61%
13:00 -2°C° 0 mm 11 mps 641 mmHg 64%
14:00 -3°C° 0 mm 11 mps 641 mmHg 66%
15:00 -3°C° 0 mm 11 mps 641 mmHg 68%
16:00 -4°C° 0 mm 10 mps 641 mmHg 73%
17:00 -4°C° 0 mm 10 mps 641 mmHg 78%
18:00 -5°C° 0 mm 10 mps 641 mmHg 83%
19:00 -5°C° 0 mm 9 mps 641 mmHg 85%
20:00 -5°C° 0 mm 8 mps 642 mmHg 87%
21:00 -4°C° 0 mm 7 mps 642 mmHg 89%
22:00 -4°C° 0 mm 7 mps 642 mmHg 88%
23:00 -4°C° 0 mm 7 mps 642 mmHg 88%

3 December, Thursday

Time Temperature Precipitation Wind Pressure Humidity
00:00 -4°C° 0 mm 7 mps 642 mmHg 87%
01:00 -4°C° 0 mm 6 mps 641 mmHg 87%
02:00 -4°C° 0 mm 6 mps 641 mmHg 87%
03:00 -4°C° 0 mm 6 mps 641 mmHg 87%
04:00 -4°C° 0 mm 5 mps 641 mmHg 86%
05:00 -4°C° 0 mm 5 mps 641 mmHg 85%
06:00 -4°C° 0 mm 5 mps 640 mmHg 83%
07:00 -2°C° 0 mm 4 mps 640 mmHg 81%
08:00 -2°C° 0 mm 4 mps 640 mmHg 79%
09:00 -1°C° 0 mm 3 mps 640 mmHg 77%
10:00 0°C° 0 mm 3 mps 640 mmHg 69%
11:00 +1°C° 0 mm 3 mps 640 mmHg 61%
12:00 +2°C° 0 mm 3 mps 639 mmHg 53%
13:00 +3°C° 0 mm 3 mps 639 mmHg 51%
14:00 +3°C° 0 mm 4 mps 639 mmHg 49%
15:00 +4°C° 0 mm 4 mps 638 mmHg 47%
16:00 +2°C° 0 mm 3 mps 637 mmHg 53%
17:00 +2°C° 0 mm 2 mps 637 mmHg 58%
18:00 +1°C° 0 mm 1 mps 636 mmHg 64%
19:00 -1°C° 0 mm 2 mps 636 mmHg 63%
20:00 -1°C° 0 mm 3 mps 636 mmHg 61%
21:00 -2°C° 0 mm 4 mps 635 mmHg 60%
22:00 -2°C° 0 mm 4 mps 635 mmHg 65%
23:00 -2°C° 0 mm 4 mps 634 mmHg 70%

4 December, Friday

Time Temperature Precipitation Wind Pressure Humidity
00:00 -2°C° 0 mm 5 mps 634 mmHg 76%
01:00 -3°C° 0 mm 6 mps 633 mmHg 78%
02:00 -3°C° 0 mm 6 mps 633 mmHg 81%
03:00 -3°C° 0 mm 7 mps 632 mmHg 83%
04:00 -3°C° 0 mm 7 mps 632 mmHg 85%
05:00 -4°C° 0 mm 7 mps 631 mmHg 86%
06:00 -4°C° 0 mm 7 mps 631 mmHg 87%
07:00 -5°C° 0.3 mm 8 mps 631 mmHg 78%
08:00 -5°C° 0.3 mm 9 mps 632 mmHg 69%
09:00 -4°C° 0.3 mm 11 mps 632 mmHg 60%
10:00 -4°C° 0 mm 11 mps 632 mmHg 56%
11:00 -3°C° 0 mm 11 mps 632 mmHg 51%
12:00 -2°C° 0 mm 12 mps 632 mmHg 46%
13:00 -3°C° 0 mm 12 mps 632 mmHg 49%
14:00 -3°C° 0 mm 12 mps 632 mmHg 52%
15:00 -3°C° 0 mm 12 mps 631 mmHg 55%
16:00 -5°C° 0 mm 10 mps 631 mmHg 61%
17:00 -6°C° 0 mm 9 mps 631 mmHg 67%
18:00 -7°C° 0 mm 8 mps 632 mmHg 73%
19:00 -7°C° 0 mm 8 mps 632 mmHg 74%
20:00 -7°C° 0 mm 8 mps 632 mmHg 75%
21:00 -7°C° 0 mm 8 mps 633 mmHg 77%
22:00 -7°C° 0 mm 8 mps 633 mmHg 77%
23:00 -8°C° 0 mm 8 mps 633 mmHg 78%
Show more